Time,TemperatureF,DewpointF,PressureIn,WindDirection,WindDirectionDegrees,WindSpeedMPH,WindSpeedGustMPH,Humidity,HourlyPrecipIn,Conditions,Clouds,dailyrainin,SoftwareType,DateUTC
2013-01-03 00:01:00,23.4,17.3,29.92,SW,225,0.0,-999.0,77,-99.99,,,0.00,Acu-Link.com,2013-01-03 06:01:00,
2013-01-03 00:17:00,23.0,16.9,29.91,SSW,202,7.8,-999.0,77,-99.99,,,0.00,Acu-Link.com,2013-01-03 06:17:00,
2013-01-03 00:32:00,22.6,17.1,29.92,SW,225,2.7,-999.0,79,-99.99,,,0.00,Acu-Link.com,2013-01-03 06:32:00,
2013-01-03 00:47:00,23.0,17.5,29.92,SSW,202,3.7,-999.0,79,-99.99,,,0.00,Acu-Link.com,2013-01-03 06:47:00,
2013-01-03 01:03:00,23.2,18.0,29.92,South,180,2.7,-999.0,80,-99.99,,,0.00,Acu-Link.com,2013-01-03 07:03:00,
2013-01-03 01:18:00,23.5,18.3,29.92,SW,225,3.7,-999.0,80,-99.99,,,0.00,Acu-Link.com,2013-01-03 07:18:00,
2013-01-03 01:33:00,23.5,18.3,29.92,SW,225,3.7,-999.0,80,-99.99,,,0.00,Acu-Link.com,2013-01-03 07:33:00,
2013-01-03 01:49:00,24.1,19.1,29.92,South,180,4.2,-999.0,81,-99.99,,,0.00,Acu-Link.com,2013-01-03 07:49:00,
2013-01-03 02:04:00,24.3,19.6,29.93,South,180,0.0,-999.0,82,-99.99,,,0.00,Acu-Link.com,2013-01-03 08:04:00,
2013-01-03 02:19:00,24.3,19.6,29.93,SW,225,1.7,-999.0,82,-99.99,,,0.00,Acu-Link.com,2013-01-03 08:19:00,
2013-01-03 02:35:00,24.3,19.6,29.94,SW,225,0.0,-999.0,82,-99.99,,,0.00,Acu-Link.com,2013-01-03 08:35:00,
2013-01-03 02:50:00,24.4,20.0,29.94,SW,225,2.2,-999.0,83,-99.99,,,0.00,Acu-Link.com,2013-01-03 08:50:00,
2013-01-03 03:09:00,24.4,20.0,29.94,SW,225,3.2,-999.0,83,-99.99,,,0.00,Acu-Link.com,2013-01-03 09:09:00,
2013-01-03 03:24:00,23.7,19.9,29.94,SSW,202,4.7,-999.0,85,-99.99,,,0.00,Acu-Link.com,2013-01-03 09:24:00,
2013-01-03 03:40:00,24.1,20.8,29.94,SSW,202,0.0,-999.0,87,-99.99,,,0.00,Acu-Link.com,2013-01-03 09:40:00,
2013-01-03 03:55:00,24.6,21.3,29.93,SW,225,0.0,-999.0,87,-99.99,,,0.00,Acu-Link.com,2013-01-03 09:55:00,
2013-01-03 04:12:00,24.8,21.8,29.94,SW,225,0.0,-999.0,88,-99.99,,,0.00,Acu-Link.com,2013-01-03 10:12:00,
2013-01-03 04:28:00,25.3,22.5,29.94,South,180,0.0,-999.0,89,-99.99,,,0.00,Acu-Link.com,2013-01-03 10:28:00,
2013-01-03 04:43:00,25.7,22.9,29.94,South,180,0.0,-999.0,89,-99.99,,,0.00,Acu-Link.com,2013-01-03 10:43:00,
2013-01-03 04:58:00,25.9,23.1,29.95,South,180,0.0,-999.0,89,-99.99,,,0.00,Acu-Link.com,2013-01-03 10:58:00,
2013-01-03 05:14:00,25.9,23.9,29.95,South,180,2.2,-999.0,92,-99.99,,,0.00,Acu-Link.com,2013-01-03 11:14:00,
2013-01-03 05:29:00,26.8,24.8,29.96,South,180,3.7,-999.0,92,-99.99,,,0.00,Acu-Link.com,2013-01-03 11:29:00,
2013-01-03 05:44:00,27.0,25.0,29.96,SSW,202,0.0,-999.0,92,-99.99,,,0.00,Acu-Link.com,2013-01-03 11:44:00,
2013-01-03 05:59:00,27.0,25.0,29.96,SSW,202,0.0,-999.0,92,-99.99,,,0.00,Acu-Link.com,2013-01-03 11:59:00,
2013-01-03 06:15:00,27.0,25.0,29.96,SW,225,0.0,-999.0,92,-99.99,,,0.00,Acu-Link.com,2013-01-03 12:15:00,
2013-01-03 06:30:00,27.0,25.0,29.97,SSW,202,0.0,-999.0,92,-99.99,,,0.00,Acu-Link.com,2013-01-03 12:30:00,
2013-01-03 06:45:00,27.0,25.0,29.98,SW,225,0.0,-999.0,92,-99.99,,,0.00,Acu-Link.com,2013-01-03 12:45:00,
2013-01-03 07:01:00,27.0,25.0,29.97,West,270,0.0,-999.0,92,-99.99,,,0.00,Acu-Link.com,2013-01-03 13:01:00,
2013-01-03 07:16:00,27.0,25.0,29.97,West,270,0.0,-999.0,92,-99.99,,,0.00,Acu-Link.com,2013-01-03 13:16:00,
2013-01-03 07:31:00,27.0,25.0,29.98,West,270,0.0,-999.0,92,-99.99,,,0.00,Acu-Link.com,2013-01-03 13:31:00,
2013-01-03 07:47:00,27.1,25.1,29.98,WNW,292,0.0,-999.0,92,-99.99,,,0.00,Acu-Link.com,2013-01-03 13:47:00,
2013-01-03 08:02:00,27.5,25.2,29.98,West,270,0.0,-999.0,91,-99.99,,,0.00,Acu-Link.com,2013-01-03 14:02:00,
2013-01-03 08:17:00,27.9,25.4,29.99,SW,225,0.0,-999.0,90,-99.99,,,0.00,Acu-Link.com,2013-01-03 14:17:00,
2013-01-03 08:33:00,28.0,25.2,29.99,WNW,292,0.0,-999.0,89,-99.99,,,0.00,Acu-Link.com,2013-01-03 14:33:00,
2013-01-03 08:48:00,28.6,25.5,30.01,West,270,3.2,-999.0,88,-99.99,,,0.00,Acu-Link.com,2013-01-03 14:48:00,
2013-01-03 09:04:00,28.9,25.8,30.01,West,270,3.7,-999.0,88,-99.99,,,0.00,Acu-Link.com,2013-01-03 15:04:00,
2013-01-03 09:19:00,29.1,25.4,30.02,West,270,0.0,-999.0,86,-99.99,,,0.00,Acu-Link.com,2013-01-03 15:19:00,
2013-01-03 09:34:00,29.7,25.8,30.02,WNW,292,0.0,-999.0,85,-99.99,,,0.00,Acu-Link.com,2013-01-03 15:34:00,
2013-01-03 09:50:00,30.0,25.2,30.04,West,270,0.0,-999.0,82,-99.99,,,0.00,Acu-Link.com,2013-01-03 15:50:00,
2013-01-03 10:05:00,30.2,24.8,30.03,WNW,292,1.7,-999.0,80,-99.99,,,0.00,Acu-Link.com,2013-01-03 16:05:00,
2013-01-03 10:20:00,30.2,24.8,30.04,NW,315,0.0,-999.0,80,-99.99,,,0.00,Acu-Link.com,2013-01-03 16:20:00,
2013-01-03 10:36:00,30.6,25.2,30.04,WSW,247,3.2,-999.0,80,-99.99,,,0.00,Acu-Link.com,2013-01-03 16:36:00,
2013-01-03 10:51:00,30.7,25.3,30.04,West,270,0.0,-999.0,80,-99.99,,,0.00,Acu-Link.com,2013-01-03 16:51:00,
2013-01-03 11:06:00,31.3,25.6,30.04,West,270,3.2,-999.0,79,-99.99,,,0.00,Acu-Link.com,2013-01-03 17:06:00,
2013-01-03 11:21:00,31.8,25.7,30.04,West,270,2.2,-999.0,78,-99.99,,,0.00,Acu-Link.com,2013-01-03 17:21:00,
2013-01-03 11:37:00,31.5,25.8,30.04,NW,315,3.7,-999.0,79,-99.99,,,0.00,Acu-Link.com,2013-01-03 17:37:00,
2013-01-03 11:52:00,30.9,25.5,30.03,West,270,2.7,-999.0,80,-99.99,,,0.00,Acu-Link.com,2013-01-03 17:52:00,
2013-01-03 12:07:00,30.9,24.9,30.03,South,180,2.2,-999.0,78,-99.99,,,0.00,Acu-Link.com,2013-01-03 18:07:00,
2013-01-03 12:23:00,31.5,25.1,30.03,NW,315,2.7,-999.0,77,-99.99,,,0.00,Acu-Link.com,2013-01-03 18:23:00,
2013-01-03 12:38:00,31.8,25.4,30.02,West,270,3.7,-999.0,77,-99.99,,,0.00,Acu-Link.com,2013-01-03 18:38:00,
2013-01-03 12:54:00,32.0,25.3,30.02,WSW,247,4.7,-999.0,76,-99.99,,,0.00,Acu-Link.com,2013-01-03 18:54:00,
2013-01-03 13:09:00,32.5,24.5,30.02,SSE,157,3.7,-999.0,72,-99.99,,,0.00,Acu-Link.com,2013-01-03 19:09:00,
2013-01-03 14:10:00,30.4,21.8,30.04,West,270,3.2,-999.0,70,-99.99,,,0.00,Acu-Link.com,2013-01-03 20:10:00,
2013-01-03 14:25:00,30.7,20.7,30.04,West,270,3.2,-999.0,66,-99.99,,,0.00,Acu-Link.com,2013-01-03 20:25:00,
2013-01-03 14:41:00,30.6,20.3,30.05,West,270,4.2,-999.0,65,-99.99,,,0.00,Acu-Link.com,2013-01-03 20:41:00,
2013-01-03 14:56:00,30.0,20.0,30.05,West,270,3.7,-999.0,66,-99.99,,,0.00,Acu-Link.com,2013-01-03 20:56:00,
2013-01-03 15:11:00,29.8,19.9,30.05,West,270,2.7,-999.0,66,-99.99,,,0.00,Acu-Link.com,2013-01-03 21:11:00,
2013-01-03 15:27:00,29.3,19.4,30.05,NW,315,6.8,-999.0,66,-99.99,,,0.00,Acu-Link.com,2013-01-03 21:27:00,
2013-01-03 15:57:00,28.2,19.4,30.06,WSW,247,0.0,-999.0,69,-99.99,,,0.00,Acu-Link.com,2013-01-03 21:57:00,
2013-01-03 16:12:00,28.2,19.0,30.07,NW,315,0.0,-999.0,68,-99.99,,,0.00,Acu-Link.com,2013-01-03 22:12:00,
2013-01-03 16:28:00,26.1,17.0,30.08,WSW,247,2.2,-999.0,68,-99.99,,,0.00,Acu-Link.com,2013-01-03 22:28:00,
2013-01-03 16:43:00,24.8,16.4,30.08,WNW,292,3.2,-999.0,70,-99.99,,,0.00,Acu-Link.com,2013-01-03 22:43:00,
2013-01-03 16:58:00,23.9,15.9,30.08,WSW,247,2.2,-999.0,71,-99.99,,,0.00,Acu-Link.com,2013-01-03 22:58:00,
2013-01-03 17:14:00,23.2,15.9,30.08,SSW,202,2.2,-999.0,73,-99.99,,,0.00,Acu-Link.com,2013-01-03 23:14:00,
2013-01-03 17:29:00,22.6,15.6,30.10,WNW,292,1.1,-999.0,74,-99.99,,,0.00,Acu-Link.com,2013-01-03 23:29:00,
2013-01-03 17:44:00,22.1,15.4,30.10,West,270,0.0,-999.0,75,-99.99,,,0.00,Acu-Link.com,2013-01-03 23:44:00,
2013-01-03 18:00:00,21.6,15.2,30.11,SSW,202,0.0,-999.0,76,-99.99,,,0.00,Acu-Link.com,2013-01-04 00:00:00,
2013-01-03 18:15:00,21.0,15.2,30.10,SSW,202,0.0,-999.0,78,-99.99,,,0.00,Acu-Link.com,2013-01-04 00:15:00,
2013-01-03 18:30:00,20.7,15.2,30.11,SSW,202,0.0,-999.0,79,-99.99,,,0.00,Acu-Link.com,2013-01-04 00:30:00,
2013-01-03 18:45:00,19.9,14.7,30.11,SSW,202,0.0,-999.0,80,-99.99,,,0.00,Acu-Link.com,2013-01-04 00:45:00,
2013-01-03 19:01:00,19.6,14.7,30.11,NW,315,0.0,-999.0,81,-99.99,,,0.00,Acu-Link.com,2013-01-04 01:01:00,
2013-01-03 19:16:00,19.2,14.6,30.12,NW,315,0.0,-999.0,82,-99.99,,,0.00,Acu-Link.com,2013-01-04 01:16:00,
2013-01-03 19:31:00,18.9,14.6,30.12,WNW,292,2.7,-999.0,83,-99.99,,,0.00,Acu-Link.com,2013-01-04 01:31:00,
2013-01-03 19:47:00,19.0,14.4,30.12,NW,315,1.7,-999.0,82,-99.99,,,0.00,Acu-Link.com,2013-01-04 01:47:00,
2013-01-03 20:02:00,18.5,14.2,30.12,NW,315,0.0,-999.0,83,-99.99,,,0.00,Acu-Link.com,2013-01-04 02:02:00,
2013-01-03 20:17:00,18.0,14.0,30.13,SSW,202,0.0,-999.0,84,-99.99,,,0.00,Acu-Link.com,2013-01-04 02:17:00,
2013-01-03 20:33:00,17.8,14.1,30.12,NW,315,0.0,-999.0,85,-99.99,,,0.00,Acu-Link.com,2013-01-04 02:33:00,
2013-01-03 20:48:00,17.6,13.9,30.12,NW,315,1.1,-999.0,85,-99.99,,,0.00,Acu-Link.com,2013-01-04 02:48:00,
2013-01-03 21:03:00,17.2,13.5,30.12,NW,315,0.0,-999.0,85,-99.99,,,0.00,Acu-Link.com,2013-01-04 03:03:00,
2013-01-03 21:18:00,16.9,13.2,30.12,NW,315,0.0,-999.0,85,-99.99,,,0.00,Acu-Link.com,2013-01-04 03:18:00,
2013-01-03 21:34:00,16.5,13.1,30.12,NW,315,0.0,-999.0,86,-99.99,,,0.00,Acu-Link.com,2013-01-04 03:34:00,
2013-01-03 21:49:00,16.2,12.8,30.13,NW,315,0.0,-999.0,86,-99.99,,,0.00,Acu-Link.com,2013-01-04 03:49:00,
2013-01-03 22:04:00,16.0,12.6,30.13,NW,315,3.2,-999.0,86,-99.99,,,0.00,Acu-Link.com,2013-01-04 04:04:00,
2013-01-03 22:20:00,15.6,12.4,30.13,NW,315,0.0,-999.0,87,-99.99,,,0.00,Acu-Link.com,2013-01-04 04:20:00,
2013-01-03 22:35:00,15.1,12.2,30.12,South,180,0.0,-999.0,88,-99.99,,,0.00,Acu-Link.com,2013-01-04 04:35:00,
2013-01-03 22:50:00,14.7,11.8,30.11,South,180,2.2,-999.0,88,-99.99,,,0.00,Acu-Link.com,2013-01-04 04:50:00,
2013-01-03 23:06:00,14.4,11.5,30.12,South,180,2.2,-999.0,88,-99.99,,,0.00,Acu-Link.com,2013-01-04 05:06:00,
2013-01-03 23:21:00,14.0,11.6,30.11,South,180,0.0,-999.0,90,-99.99,,,0.00,Acu-Link.com,2013-01-04 05:21:00,
2013-01-03 23:36:00,13.6,11.2,30.12,South,180,0.0,-999.0,90,-99.99,,,0.00,Acu-Link.com,2013-01-04 05:36:00,
2013-01-03 23:51:00,13.3,10.9,30.12,South,180,2.2,-999.0,90,-99.99,,,0.00,Acu-Link.com,2013-01-04 05:51:00,